Showing default

ICEYE-X53, 64584

Orbit data source: Space-Track

ICEYE-X53, 64584 is a payload satellite owned by ICEYE (FI) in SSO that was launched on Mon, 23 Jun 2025 UTC via an FALCON 9 launch vehicle from the Air Force Western Test Range (AFWTR). Payload-class satellites include a variety of spacecraft equipped with specific instruments for various scientific and technological missions. These include communications satellites like Starlink; space stations such as the ISS; scientific satellites like the Hubble; Earth observation satellites from companies like Planet Labs, Umbra, and HawkEye 360; GPS; miniature CubeSats for education and research; and military/defense satellites.

Loading next visibility...
Identifier
64584, 2025-135BJ
Orbit
SSO
Country
Flag of FIFI / FIN
Related business
Manufacturer
ICEYE
Mission
Operational Commercial Radar Imaging
Bus & Motor
ICEYE, Unknown motor
Mass
80 kg wet, 80 kg dry
Launch date (UTC)
2025-06-23 (11 months ago)
Launch vehicle
FALCON 9
Launch site
Air Force Western Test Range (AFWTR)
Object type
Payload
Rocket body
Debris
Shape & HBR
Box + 1 Pan, 2.4 m
Radar Cross Section
0.776 m², Large (>1 m²)

Expand to show TLE details & history
Last TLE update: 8 hours ago

TLE from 8 hours ago
0 ICEYE-X53
1 64584U 25135BJ  26133.28997228  .00001716  00000-0  13972-3 0  9995
2 64584  97.7404 250.2182 0001984 132.0925 228.0467 15.00853583 48845
Epoch: 2026-05-13T06:57Z
TLE epoch observation values (Epoch: 2026-05-13T06:57:33.604Z)
Latitude
-0.00007°
Longitude
-85.22393°
Altitude
568.239 km
Speed
7.576 km/s
True Right ascension
16h 40m 52s
True Declination
0° 00' 00"
Sunlit
Object was in full shadow at epoch
Visualization orbit readout
Latitude
Unknown
Longitude
Unknown
Altitude
Unknown
Speed
Unknown
Apparent Right ascension
Unknown
Apparent Declination
Unknown
Sunlit
N/A
Visualization observer readout
Local Sidereal Time
22:53:23
Azimuth
Unknown
Elevation
Unknown
Doppler factor
Unknown
Orbital elements
Apogee altitude
562.646 km
Perigee altitude
559.892 km
Semi-major axis
6,939.406 km
Eccentricity
0.0002
Inclination
97.7404°
RAAN
250.2182°
Arg. of periapsis
132.0925°
True anomaly
228.0298°
Mean anomaly
228.0467°
Eccentric anomaly
228.03825°
Mean motion
3.75457 °/min
Orbital period
95.88 mins
BSTAR
0.00013972
Loading maneuver chart data...
Computing Atmospheric mass density...
Loading historical data...
Loading historical data...
Loading historical data...
Loading historical data...
Loading historical data...
Loading historical data...
Loading historical data...

Documentation

Showing up to 5 results
|